Kiana, AK

10:46 AM AKDT on March 27, 2017 (GMT -0800)
Baker Memorial

Weather History for PAIK - October, 2011

Change the Weather History Date:

Wednesday, October 26, 2011

  Actual Average (PASK) Record (PASK)
Temperature  
Mean Temperature 26 °F -  
Max Temperature 23 °F 18 °F 39 °F (2002)
Min Temperature 23 °F 10 °F -7 °F (1997)
Degree Days  
Heating Degree Days 40    
Moisture  
Dew Point 25 °F    
Average Humidity 94    
Maximum Humidity 100    
Minimum Humidity 86    
Precipitation  
Precipitation 0.00 in - - ()
Sea Level Pressure  
Sea Level Pressure 29.37 in    
Wind  
Wind Speed 4 mph (ENE)    
Max Wind Speed 7 mph    
Max Gust Speed -    
Visibility 4 miles    
Events Snow    
Averages and records for this station are not official NWS values.
T = Trace of Precipitation, MM = Missing Value Source: NWS Daily Summary

Daily Weather History Graph

Daily Weather History Graph

Search for Another Location

Airport or City:

Trip Planner

Search our weather history database for the weather conditions in past years. The results will help you decide how hot, cold, wet, or windy it might be!

Date:

Astronomy

Oct. 26, 2011 Rise Set
Actual Time 10:21 AM AKDT 6:28 PM AKDT
Civil Twilight 9:23 AM AKDT 7:26 PM AKDT
Nautical Twilight 8:20 AM AKDT 8:29 PM AKDT
Astronomical Twilight 7:18 AM AKDT 9:30 PM AKDT
Moon 11:02 AM AKDT (10/26) 5:32 PM AKDT (10/26)
Length of Visible Light 10h 03m
Length of Day
8h 07m
Waning Crescent, 0% of the Moon is Illuminated
Oct 26
Waning Crescent
Nov 2
First Quarter
Nov 10
Full
Nov 18
Last Quarter
Nov 24
New

Hourly Weather History & Observations

Time (AKDT) Temp. Windchill Dew Point Humidity Pressure Visibility Wind Dir Wind Speed Gust Speed Precip Events Conditions
12:01 AM 26.1 °F 19.4 °F 25.0 °F 96% 29.25 in 10.0 mi East 5.8 mph - 0.00 in   Overcast
12:53 AM 26.6 °F 20.0 °F 24.8 °F 93% 29.13 in 7.0 mi East 5.8 mph - 0.00 in Snow Light Snow
1:01 AM 26.1 °F 18.4 °F 25.0 °F 96% 29.26 in 8.0 mi East 6.9 mph - 0.00 in Snow Light Snow
2:01 AM 26.1 °F 18.4 °F 25.0 °F 96% 29.27 in 3.0 mi ENE 6.9 mph - 0.00 in Snow Light Snow
2:09 AM 26.6 °F 20.0 °F 24.8 °F 93% 29.14 in 2.5 mi ENE 5.8 mph - 0.00 in Snow Light Snow
3:01 AM 26.1 °F 19.4 °F 25.0 °F 96% 29.28 in 2.5 mi ENE 5.8 mph - 0.00 in Snow Light Snow
3:15 AM 26.6 °F 20.0 °F 24.8 °F 93% 29.16 in 3.0 mi ENE 5.8 mph - 0.00 in Snow Light Snow
3:32 AM 26.6 °F 20.0 °F 24.8 °F 93% 29.16 in 2.5 mi ENE 5.8 mph - 0.00 in Snow Light Snow
3:40 AM 26.6 °F 21.2 °F 24.8 °F 93% 29.16 in 6.0 mi East 4.6 mph - 0.00 in Snow Light Snow
4:01 AM 26.1 °F 21.9 °F 25.0 °F 96% 29.29 in 4.0 mi East 3.5 mph - 0.00 in Snow Light Snow
5:01 AM 26.6 °F 19.1 °F 24.8 °F 93% 29.18 in 2.5 mi ENE 6.9 mph - 0.00 in Snow Light Snow
5:08 AM 26.6 °F 20.0 °F 24.8 °F 93% 29.18 in 4.0 mi NE 5.8 mph - 0.00 in Snow Light Snow
5:54 AM 26.6 °F - 24.8 °F 93% 29.19 in 5.0 mi Calm Calm - 0.00 in Snow Light Snow
6:01 AM 26.1 °F - 25.0 °F 96% 29.32 in 6.0 mi Calm Calm - 0.00 in Snow Light Snow
7:01 AM 26.1 °F - 25.0 °F 96% 29.34 in 7.0 mi Calm Calm - 0.00 in Snow Light Snow
8:01 AM 26.1 °F 21.9 °F 25.0 °F 96% 29.36 in 9.0 mi SW 3.5 mph - 0.00 in Snow Light Snow
9:01 AM 26.1 °F 21.9 °F 25.0 °F 96% 29.38 in 8.0 mi South 3.5 mph - 0.00 in Snow Light Snow
9:38 AM 26.6 °F 22.6 °F 24.8 °F 93% 29.26 in 6.0 mi South 3.5 mph - 0.00 in Snow Light Snow
10:01 AM 26.6 °F 20.0 °F 24.8 °F 93% 29.27 in 4.0 mi South 5.8 mph - 0.00 in Snow Light Snow
10:13 AM 26.6 °F 22.6 °F 24.8 °F 93% 29.27 in 2.0 mi South 3.5 mph - 0.00 in Snow Light Snow
10:27 AM 26.6 °F 22.6 °F 24.8 °F 93% 29.28 in 1.5 mi SSE 3.5 mph - 0.00 in Snow Light Snow
11:01 AM 26.1 °F - 24.1 °F 92% 29.41 in 1.2 mi Calm Calm - 0.00 in Snow Light Snow
11:29 AM 26.6 °F - 24.8 °F 93% 29.30 in 1.0 mi Calm Calm - 0.00 in Snow Light Snow
12:01 PM 26.6 °F - 24.8 °F 93% 29.31 in 1.2 mi Calm Calm - 0.00 in Snow Light Snow
12:21 PM 26.6 °F - 24.8 °F 93% 29.32 in 2.0 mi Calm Calm - 0.00 in Snow Light Snow
12:31 PM 26.6 °F - 24.8 °F 93% 29.32 in 1.8 mi Calm Calm - 0.00 in Snow Light Snow
1:01 PM 26.1 °F 21.9 °F 25.0 °F 96% 29.46 in 1.2 mi ENE 3.5 mph - 0.00 in Snow Light Snow
2:01 PM 27.0 °F - 25.0 °F 92% 29.48 in 1.8 mi Calm Calm - 0.00 in Snow Light Snow
2:22 PM 28.4 °F - 26.6 °F 93% 29.36 in 1.8 mi Calm Calm - 0.00 in Snow Light Snow
2:27 PM 28.4 °F - 26.6 °F 93% 29.36 in 2.0 mi Calm Calm - 0.00 in Snow Light Snow
2:38 PM 28.4 °F 24.6 °F 26.6 °F 93% 29.37 in 7.0 mi NNW 3.5 mph - 0.00 in Snow Light Snow
2:49 PM 28.4 °F - 26.6 °F 93% 29.37 in 1.8 mi Calm Calm - 0.00 in Snow Light Snow
3:01 PM 28.9 °F - 26.1 °F 89% 29.50 in 1.5 mi Calm Calm - 0.00 in Snow Light Snow
3:14 PM 28.4 °F - 26.6 °F 93% 29.38 in 3.0 mi Calm Calm - 0.00 in Snow Light Snow
3:35 PM 28.4 °F 23.3 °F 26.6 °F 93% 29.38 in 3.0 mi North 4.6 mph - 0.00 in Snow Light Snow
3:39 PM 28.4 °F 23.3 °F 26.6 °F 93% 29.39 in 1.8 mi North 4.6 mph - 0.00 in Snow Light Snow
4:01 PM 28.4 °F 23.3 °F 24.8 °F 86% 29.39 in 2.5 mi North 4.6 mph - 0.00 in Snow Light Snow
4:08 PM 28.4 °F 23.3 °F 24.8 °F 86% 29.39 in 4.0 mi North 4.6 mph - 0.00 in Snow Light Snow
4:26 PM 26.6 °F 22.6 °F 24.8 °F 93% 29.40 in 1.5 mi North 3.5 mph - 0.00 in Snow Light Snow
4:50 PM 26.6 °F 22.6 °F 24.8 °F 93% 29.41 in 1.0 mi North 3.5 mph - 0.00 in Snow Light Snow
5:01 PM 27.0 °F 23.0 °F 25.0 °F 92% 29.54 in 1.0 mi North 3.5 mph - 0.00 in Snow Light Snow
5:13 PM 26.6 °F 22.6 °F 24.8 °F 93% 29.42 in 1.2 mi North 3.5 mph - 0.00 in Snow Light Snow
5:35 PM 26.6 °F - 24.8 °F 93% 29.42 in 3.0 mi Calm Calm - 0.00 in Snow Light Snow
5:50 PM 26.6 °F - 24.8 °F 93% 29.43 in 9.0 mi Calm Calm - 0.00 in Snow Light Snow
6:01 PM 26.1 °F - 24.1 °F 92% 29.56 in 4.0 mi Calm Calm - 0.00 in Snow Light Snow
6:11 PM 26.6 °F - 24.8 °F 93% 29.43 in 2.5 mi Calm Calm - 0.00 in Snow Light Snow
6:21 PM 26.6 °F - 24.8 °F 93% 29.44 in 1.8 mi Calm Calm - 0.00 in Snow Light Snow
7:01 PM 26.1 °F - 24.1 °F 92% 29.58 in 1.2 mi Calm Calm - 0.00 in Snow Light Snow
7:17 PM 24.8 °F 20.5 °F 24.8 °F 100% 29.46 in 2.5 mi ENE 3.5 mph - 0.00 in Snow Light Snow
7:25 PM 24.8 °F 20.5 °F 24.8 °F 100% 29.46 in 4.0 mi ENE 3.5 mph - 0.00 in Snow Light Snow
7:56 PM 24.8 °F - 24.8 °F 100% 29.47 in 4.0 mi Calm Calm - 0.00 in Snow Light Snow
8:01 PM 24.8 °F 20.5 °F 24.8 °F 100% 29.47 in 2.5 mi NE 3.5 mph - 0.00 in Snow Light Snow
8:14 PM 24.8 °F 20.5 °F 24.8 °F 100% 29.47 in 4.0 mi NE 3.5 mph - 0.00 in Snow Light Snow
9:01 PM 25.0 °F 19.3 °F 24.1 °F 96% 29.62 in 9.0 mi East 4.6 mph - 0.00 in Snow Light Snow
9:10 PM 24.8 °F 20.5 °F 24.8 °F 100% 29.49 in 9.0 mi ESE 3.5 mph - 0.00 in Snow Light Snow
10:01 PM 24.1 °F 19.7 °F 23.0 °F 96% 29.63 in 7.0 mi East 3.5 mph - 0.00 in Snow Light Snow
10:28 PM 24.8 °F 19.1 °F 23.0 °F 93% 29.51 in 9.0 mi East 4.6 mph - 0.00 in Snow Light Snow
10:59 PM 23.0 °F 17.0 °F 23.0 °F 100% 29.52 in 9.0 mi East 4.6 mph - 0.00 in Snow Light Snow
11:01 PM 23.0 °F 17.0 °F 23.0 °F 100% 29.65 in 9.0 mi East 4.6 mph - 0.00 in Snow Light Snow